This demonstration page uses our WeatherBlox Daily Observations layout. Learn more.

Left ArrowRight Arrow

Hourly Observations for December 3, 2015

Temp ( °F °C ) Dew Point ( °F °C ) Humidity (%) Winds ( mph kmh ) Pressure ( in mb ) Visibility ( mi km ) Precip ( " mm )
12:58 am 00:58 Clear 20 -6.4 19 -7.2 94 94 Calm 30.26 1025 10 16 0.00 0.00
1:58 am 01:58 Clear 22 -5.5 20 -6.6 92 92 Calm 30.27 1025 10 16 0.00 0.00
2:58 am 02:58 Clear 20 -6.5 19 -7.2 95 95 VRB 1 2 30.29 1026 10 16 0.00 0.00
3:58 am 03:58 Clear 20 -6.8 19 -7.5 95 95 Calm 30.29 1026 10 16 0.00 0.00
4:58 am 04:58 Clear 21 -6 20 -6.8 94 94 SSW 2 4 30.30 1026 10 16 0.00 0.00
5:58 am 05:58 Clear 20 -6.9 18 -7.6 95 95 Calm 30.33 1027 10 16 0.00 0.00
6:58 am 06:58 Clear 19 -7.2 18 -8 94 94 SSW 1 2 30.34 1027 10 16 0.00 0.00
7:58 am 07:58 Sunny 19 -7.4 17 -8.3 93 93 SSE 2 4 30.36 1028 9 14 0.00 0.00
8:58 am 08:58 Sunny 26 -3.4 25 -3.7 98 98 S 3 6 30.37 1029 10 16 0.00 0.00
9:58 am 09:58 Sunny 26 -3.4 25 -3.7 98 98 S 3 6 30.37 1029 10 16 0.00 0.00
10:58 am 10:58 Sunny 36 2.4 29 -1.9 74 74 S 6 9 30.39 1029 10 16 0.00 0.00
11:58 am 11:58 Sunny 42 5.3 30 -1.1 64 64 S 5 7 30.37 1028 10 16 0.00 0.03
12:58 pm 12:58 Sunny 45 7.1 31 -0.5 59 59 S 6 9 30.34 1028 10 16 0.00 0.00
1:58 pm 13:58 Sunny 47 8.2 31 -0.5 55 55 SW 8 13 30.34 1028 10 16 0.00 0.00
2:58 pm 14:58 Sunny 47 8.6 32 0.1 55 55 S 7 11 30.34 1028 10 16 0.00 0.00
3:58 pm 15:58 Sunny 46 7.9 33 0.8 61 61 VRB 7 11 30.34 1028 10 16 0.00 0.00
4:58 pm 16:58 Clear 43 6.2 32 0.2 66 66 S 5 7 30.35 1028 10 16 0.00 0.00
5:58 pm 17:58 Clear 34 0.9 28 -2 81 81 SE 3 6 30.37 1028 10 16 0.00 0.00
6:58 pm 18:58 Clear 31 -0.3 28 -2.1 88 88 SE 2 4 30.38 1029 10 16 0.00 0.00
7:58 pm 19:58 Clear 29 -1.5 27 -2.8 91 91 S 3 6 30.40 1029 10 16 0.00 0.00
8:58 pm 20:58 Clear 28 -2.3 26 -3.1 94 94 S 2 4 30.39 1029 10 16 0.00 0.00
9:58 pm 21:58 Clear 26 -3.3 25 -4.1 94 94 S 2 4 30.45 1031 10 16 0.00 0.00
10:58 pm 22:58 Clear 28 -2.1 26 -3.3 92 92 S 3 6 30.40 1029 10 16 0.00 0.00
11:58 pm 23:58 Clear 24 -4.7 22 -5.4 95 95 Calm 30.40 1029 10 16 0.00 0.00

Powered by AerisWeather